STARLINK-33645 (63412 NORAD) Tracking and Keplerian Element Data

This shows tracking and keplerian element data for the satellite.

Feedback or suggestion? Click here.




ElementValue
Catalog63412
NameSTARLINK-33645
Epoch Orbit4060
Epoch Day353.92938881
Epoch Year2025
RAAN200.7323
Inclination42.998
Eccentricity0.0001692
Argument of Perigee264.2661
Mean Anonmoly95.7998
Mean Motion15.27591715
Decay Rate0.00013939
L11 63412U 25065P 25353.92938881 .00013939 00000+0 51492-3 0 9998
L22 63412 42.9980 200.7323 0001692 264.2661 95.7998 15.27591715 40602



Live tracking and technical data element details for STARLINK-33645 (NORAD 63412). STARLINK-33645 can be tracked NOW for your location showing map with azimuth and elevation plus other details from your city location.







IsCatalogInMostPopularTable: catalog: 63412, numindb: 1
Update: records affected: 1



GetName: 63412 STARLINK-33645

Hit Count: updated at: Wed, 11 Feb 2026 15:28:04 GMT